DW9771 Weather Reports


Display with metric or nautical units.
time (UTC)temp
F
wind
direction
speed
MPH
gust
MPH
rain 1hr
in
rain 24hr
in
rain mn
in
humidity
%
barometer
mb
20260504214539 57 192 3.0 7.0 0.00 0.00 0.00 86 1013.3
20260504213043 57 175 3.0 7.0 0.00 0.00 0.00 87 1013.3
20260504211537 57 216 3.0 9.0 0.00 0.00 0.00 87 1013.3
20260504210045 57 229 3.0 7.0 0.00 0.00 0.00 87 1013.2
20260504204537 57 205 3.0 7.0 0.00 0.00 0.00 87 1013.3
20260504203035 57 174 3.0 8.0 0.00 0.00 0.00 87 1013.4
20260504201534 57 236 3.0 7.0 0.00 0.00 0.00 87 1013.4
20260504200034 57 190 3.0 8.0 0.00 0.00 0.00 87 1013.5
20260504194532 57 143 4.0 8.0 0.00 0.00 0.00 86 1013.4
20260504193032 57 174 3.0 6.0 0.00 0.00 0.00 87 1013.3
20260504191552 56 229 4.0 10.0 0.00 0.00 0.00 87 1013.4
20260504190029 56 186 4.0 10.0 0.00 0.00 0.00 88 1013.3
20260504184540 56 232 4.0 8.0 0.00 0.00 0.00 89 1013.3
20260504183026 56 188 4.0 12.0 0.00 0.00 0.00 89 1013.3
20260504181526 56 193 4.0 12.0 0.00 0.00 0.00 90 1013.3
20260504180032 55 165 5.0 12.0 0.00 0.00 0.00 90 1013.1
20260504174523 55 190 6.0 13.0 0.00 0.00 0.00 91 1013.0
20260504173023 55 139 7.0 13.0 0.00 0.00 0.00 91 1013.0
20260504171522 55 200 7.0 14.0 0.00 0.00 0.00 91 1013.0
20260504081526 53 10 0.0 0.0 0.00 0.01 0.00 87 1008.8
20260504050012 59 326 4.0 9.0 0.00 0.01 0.01 76 1008.6
20260504044510 59 326 4.0 10.0 0.00 0.01 0.01 79 1008.5
20260504043011 59 348 5.0 10.0 0.00 0.01 0.01 79 1008.4
20260504041509 59 335 6.0 10.0 0.00 0.01 0.01 79 1008.4
20260504040009 60 287 5.0 10.0 0.00 0.01 0.01 77 1008.4
20260504034508 60 326 4.0 9.0 0.00 0.01 0.01 75 1008.3
20260504033007 61 333 5.0 10.0 0.00 0.01 0.01 73 1008.3
20260504031507 62 328 5.0 11.0 0.00 0.01 0.01 71 1008.3
20260504030007 64 21 6.0 11.0 0.00 0.01 0.01 66 1008.3
20260504024509 64 328 5.0 10.0 0.00 0.01 0.01 65 1008.4
20260504023005 64 340 5.0 10.0 0.00 0.01 0.01 66 1008.3
20260504021505 65 336 4.0 12.0 0.00 0.01 0.01 64 1008.3
20260504020004 66 350 7.0 14.0 0.00 0.01 0.01 59 1008.3
20260504014502 67 303 6.0 12.0 0.00 0.01 0.01 58 1008.5
20260504013001 66 278 6.0 15.0 0.00 0.01 0.01 59 1008.6
20260504011559 67 322 7.0 13.0 0.00 0.01 0.01 57 1008.7
20260504010058 67 3 9.0 16.0 0.00 0.01 0.01 53 1008.9
20260504004556 68 344 6.0 15.0 0.00 0.01 0.01 53 1009.0
20260504003053 69 8 9.0 16.0 0.00 0.01 0.01 53 1009.1
20260504001552 69 338 9.0 14.0 0.00 0.01 0.01 56 1009.2
20260504000125 69 327 8.0 17.0 0.00 0.01 0.01 53 1009.3
20260503234549 68 347 9.0 17.0 0.00 0.01 0.01 55 1009.5
20260503233046 68 39 10.0 15.0 0.00 0.01 0.01 55 1009.6
20260503231545 69 334 10.0 19.0 0.00 0.01 0.01 55 1009.8
20260503230042 69 345 8.0 15.0 0.00 0.01 0.01 55 1009.9
20260503224540 69 293 10.0 17.0 0.00 0.01 0.01 54 1010.1
20260503223038 70 323 11.0 16.0 0.00 0.01 0.01 53 1010.4
20260503221539 71 314 7.0 13.0 0.00 0.01 0.01 51 1010.5
20260503220035 71 330 7.0 15.0 0.00 0.01 0.01 51 1010.7